Date String (YYYY-MM-DD hh:mm:ss) UTC,Instrument flags,absolute air pressure of the measurement (hPa),sample flow rate (lpm),inlet stack bypass flow (lpm),air temperature of the measurement (°C),ambient temperature measured by the external sensor (°C),aerosol sample conditioner tube jacket temperature (°C),OPC LED temperature (°C),internal box temperature (°C),relative humidity of the measurement (%),span deviation,mass concentration of particles derived from Lorenz-Mie calculation of OPC scattering (μg/m³),mass concentration of particles derived from Lorenz-Mie calculation of OPC scattering (μg/m³),mass concentration of particles derived from Lorenz-Mie calculation of OPC scattering (μg/m³)
DateTimeUTC,F1_M11,P_M11,Q1_M11,Q2_M11,T1_M11,T2_M11,T3_M11,T4_M11,T5_M11,U1_M11,ZSPAN_M11,X2_M11,X0_M11,X1_M11
2023-11-17 23:00:00,SystemResetWarning,0831.3,5.01,000.00,025.7,022.5,000.0,033.8,027.0,19.0,0002.8,0013.25,0026.99,0011.95
2023-11-17 23:01:00,SystemResetWarning,0831.3,4.99,000.00,025.6,022.8,000.0,033.8,026.8,19.1,0002.8,0013.19,0026.10,0011.92
2023-11-17 23:02:00,SystemResetWarning,0831.3,5.00,000.00,025.6,023.1,000.0,033.8,026.8,19.2,0002.6,0013.15,0025.49,0011.89
2023-11-17 23:03:00,SystemResetWarning,0831.3,4.99,000.00,025.6,023.5,000.0,033.7,026.9,19.2,0002.8,0013.10,0025.39,0011.85
2023-11-17 23:04:00,SystemResetWarning,0831.3,4.99,000.00,025.6,023.8,000.0,033.8,027.1,19.2,0002.9,0013.05,0025.24,0011.79
2023-11-17 23:05:00,SystemResetWarning,0831.3,5.00,000.00,025.7,024.1,000.0,033.8,027.2,19.2,0003.1,0013.03,0024.03,0011.74
2023-11-17 23:06:00,SystemResetWarning,0831.4,5.00,000.00,025.7,024.3,000.0,033.8,027.3,19.1,0003.3,0012.96,0022.67,0011.71
2023-11-17 23:07:00,SystemResetWarning,0831.3,5.00,000.00,025.7,024.5,000.0,033.8,027.3,19.0,0003.4,0012.95,0022.04,0011.69
2023-11-17 23:08:00,SystemResetWarning,0831.3,5.01,000.00,025.8,024.7,000.0,033.8,027.4,19.0,0003.3,0012.90,0022.31,0011.65
2023-11-17 23:09:00,SystemResetWarning,0831.3,4.99,000.00,025.8,024.9,000.0,033.8,027.5,18.9,0003.5,0012.90,0022.45,0011.63
2023-11-17 23:10:00,SystemResetWarning,0831.4,4.99,000.00,025.9,024.9,000.0,033.9,027.5,18.9,0003.4,0012.88,0022.71,0011.62
2023-11-17 23:11:00,SystemResetWarning,0831.4,5.00,000.00,025.9,023.8,000.0,033.9,027.4,18.9,0003.5,0012.86,0022.55,0011.59
2023-11-17 23:12:00,SystemResetWarning,0831.4,5.01,000.00,025.8,022.5,000.0,033.8,027.1,19.0,0003.5,0012.84,0022.12,0011.57
2023-11-17 23:13:00,SystemResetWarning,0831.4,5.02,000.00,025.7,022.5,000.0,033.8,026.9,19.0,0003.4,0012.79,0021.91,0011.55
2023-11-17 23:14:00,SystemResetWarning,0831.4,5.00,000.00,025.6,022.8,000.0,033.8,026.6,19.2,0003.5,0012.81,0022.96,0011.54
2023-11-17 23:15:00,SystemResetWarning,0831.5,5.00,000.00,025.5,023.2,000.0,033.8,026.8,19.2,0003.6,0012.88,0023.02,0011.57
2023-11-17 23:16:00,SystemResetWarning,0831.5,5.00,000.00,025.5,023.5,000.0,033.8,026.9,19.2,0003.7,0012.93,0023.76,0011.62
2023-11-17 23:17:00,SystemResetWarning,0831.5,5.00,000.00,025.6,023.8,000.0,033.8,027.0,19.2,0003.9,0012.89,0023.78,0011.63
2023-11-17 23:18:00,SystemResetWarning,0831.6,5.00,000.00,025.6,024.1,000.0,033.8,027.1,19.2,0003.8,0012.90,0023.18,0011.65
2023-11-17 23:19:00,SystemResetWarning,0831.6,5.00,000.00,025.6,024.3,000.0,033.8,027.2,19.1,0003.9,0012.90,0022.48,0011.67
2023-11-17 23:20:00,SystemResetWarning,0831.6,5.00,000.00,025.7,024.5,000.0,033.8,027.3,19.0,0004.1,0012.98,0022.82,0011.71
2023-11-17 23:21:00,SystemResetWarning,0831.6,5.00,000.00,025.7,024.7,000.0,033.8,027.3,19.0,0004.2,0013.05,0023.14,0011.74
2023-11-17 23:22:00,SystemResetWarning,0831.6,4.99,000.00,025.8,024.8,000.0,033.8,027.4,18.9,0004.1,0013.07,0023.68,0011.76
2023-11-17 23:23:00,SystemResetWarning,0831.6,4.99,000.00,025.8,024.9,000.0,033.9,027.5,18.9,0004.0,0013.10,0024.14,0011.76
2023-11-17 23:24:00,SystemResetWarning,0831.6,5.00,000.00,025.9,024.9,000.0,033.9,027.6,18.8,0004.0,0013.14,0024.18,0011.75
2023-11-17 23:25:00,SystemResetWarning,0831.6,5.00,000.00,025.9,023.4,000.0,033.9,027.3,18.9,0003.9,0013.13,0022.90,0011.76
2023-11-17 23:26:00,SystemResetWarning,0831.6,5.01,000.00,025.7,022.3,000.0,033.8,027.0,19.0,0003.7,0013.11,0022.16,0011.76
2023-11-17 23:27:00,SystemResetWarning,0831.5,5.01,000.00,025.6,022.3,000.0,033.8,026.7,19.1,0003.7,0013.09,0021.37,0011.74
2023-11-17 23:28:00,SystemResetWarning,0831.5,5.00,000.00,025.5,022.7,000.0,033.8,026.6,19.3,0003.7,0013.16,0021.56,0011.75
2023-11-17 23:29:00,SystemResetWarning,0831.5,5.00,000.00,025.5,023.1,000.0,033.8,026.7,19.3,0003.9,0013.17,0021.78,0011.76
2023-11-17 23:30:00,SystemResetWarning,0831.5,5.01,000.00,025.5,023.4,000.0,033.7,026.8,19.3,0003.8,0013.14,0022.45,0011.76
2023-11-17 23:31:00,SystemResetWarning,0831.5,5.00,000.00,025.5,023.7,000.0,033.7,026.9,19.3,0004.0,0013.06,0022.57,0011.73
2023-11-17 23:32:00,SystemResetWarning,0831.6,5.00,000.00,025.5,024.0,000.0,033.7,027.0,19.2,0003.8,0012.99,0022.19,0011.71
2023-11-17 23:33:00,SystemResetWarning,0831.6,5.00,000.00,025.6,024.2,000.0,033.7,027.1,19.2,0003.9,0012.98,0021.98,0011.71
2023-11-17 23:34:00,SystemResetWarning,0831.6,5.00,000.00,025.6,024.4,000.0,033.8,027.2,19.1,0004.0,0012.97,0022.00,0011.71
2023-11-17 23:35:00,SystemResetWarning,0831.6,5.00,000.00,025.7,024.6,000.0,033.8,027.3,19.1,0004.0,0012.96,0022.97,0011.70
2023-11-17 23:36:00,SystemResetWarning,0831.6,5.00,000.00,025.7,024.7,000.0,033.8,027.3,19.0,0004.2,0012.95,0023.84,0011.67
2023-11-17 23:37:00,SystemResetWarning,0831.6,5.01,000.00,025.8,024.8,000.0,033.8,027.4,18.9,0004.5,0012.93,0024.06,0011.66
2023-11-17 23:38:00,SystemResetWarning,0831.6,5.00,000.00,025.8,024.9,000.0,033.8,027.4,18.9,0004.6,0012.91,0024.25,0011.66
2023-11-17 23:39:00,SystemResetWarning,0831.6,4.99,000.00,025.8,025.0,000.0,033.9,027.5,18.8,0004.4,0012.86,0024.80,0011.62
2023-11-17 23:40:00,SystemResetWarning,0831.6,5.00,000.00,025.9,025.1,000.0,033.9,027.5,18.7,0004.5,0012.79,0025.36,0011.57
2023-11-17 23:41:00,SystemResetWarning,0831.6,5.00,000.00,025.9,025.0,000.0,033.9,027.6,18.7,0004.4,0012.76,0024.88,0011.54
2023-11-17 23:42:00,SystemResetWarning,0831.6,4.97,000.00,025.9,023.5,000.0,033.9,027.3,18.7,0004.3,0012.75,0024.43,0011.53
2023-11-17 23:43:00,SystemResetWarning,0831.5,5.02,000.00,025.8,022.2,000.0,033.9,027.0,18.8,0004.3,0012.78,0024.22,0011.51
2023-11-17 23:44:00,SystemResetWarning,0831.6,5.01,000.00,025.6,022.1,000.0,033.9,026.7,18.9,0004.6,0012.79,0024.20,0011.49
2023-11-17 23:45:00,SystemResetWarning,0831.6,4.99,000.00,025.5,022.5,000.0,033.8,026.5,19.1,0004.4,0012.78,0024.07,0011.47
2023-11-17 23:46:00,SystemResetWarning,0831.6,4.99,000.00,025.4,022.9,000.0,033.8,026.6,19.1,0004.6,0012.82,0023.88,0011.47
2023-11-17 23:47:00,SystemResetWarning,0831.6,5.01,000.00,025.4,023.3,000.0,033.8,026.7,19.1,0004.7,0012.80,0023.46,0011.45
2023-11-17 23:48:00,SystemResetWarning,0831.6,5.01,000.00,025.5,023.6,000.0,033.8,026.9,19.1,0004.9,0012.81,0022.61,0011.44
2023-11-17 23:49:00,SystemResetWarning,0831.6,5.00,000.00,025.5,023.9,000.0,033.7,027.0,19.1,0004.9,0012.80,0023.11,0011.42
2023-11-17 23:50:00,SystemResetWarning,0831.6,5.00,000.00,025.5,024.1,000.0,033.7,027.0,19.0,0005.0,0012.81,0023.95,0011.42
2023-11-17 23:51:00,SystemResetWarning,0831.6,4.99,000.00,025.5,024.3,000.0,033.7,027.1,19.0,0005.1,0012.78,0023.32,0011.43
2023-11-17 23:52:00,SystemResetWarning,0831.6,5.00,000.00,025.6,024.4,000.0,033.8,027.2,18.9,0005.1,0012.71,0023.55,0011.41
2023-11-17 23:53:00,SystemResetWarning,0831.6,5.00,000.00,025.6,024.6,000.0,033.8,027.2,18.9,0005.3,0012.67,0023.90,0011.40
2023-11-17 23:54:00,SystemResetWarning,0831.7,4.99,000.00,025.7,024.7,000.0,033.8,027.2,18.8,0005.3,0012.64,0023.92,0011.38
2023-11-17 23:55:00,SystemResetWarning,0831.6,5.00,000.00,025.7,024.8,000.0,033.8,027.3,18.8,0005.2,0012.60,0023.92,0011.36
2023-11-17 23:56:00,SystemResetWarning,0831.6,5.00,000.00,025.8,024.8,000.0,033.8,027.3,18.7,0005.1,0012.58,0024.62,0011.33
2023-11-17 23:57:00,SystemResetWarning,0831.6,5.01,000.00,025.8,024.9,000.0,033.9,027.4,18.7,0005.0,0012.52,0024.99,0011.35
2023-11-17 23:58:00,SystemResetWarning,0831.6,5.00,000.00,025.8,025.0,000.0,033.9,027.4,18.6,0005.0,0012.51,0025.07,0011.35
2023-11-17 23:59:00,SystemResetWarning,0831.6,5.01,000.00,025.9,025.0,000.0,033.9,027.4,18.6,0005.0,0012.48,0024.99,0011.34
